Location: Alexandria
(38.8050°N, 77.0470°W)
Time: 08:05:59
(UTC-04:00)

Hubble Space Telescope - Pass Details

Date: 14 March 2018
Orbit: 537 x 541 km, 28.5° (Epoch: 24 June)

Event Time Altitude Azimuth Distance (km) Brightness Sun altitude
Rises 19:58:11 0° 237° (WSW) 2,677 5.3 -9.4°
Reaches altitude 10° 20:00:58 10° 219° (SW) 1,786 3.9 -9.9°
Maximum altitude 20:03:51 18° 174° (S) 1,337 2.7 -10.5°
Enters shadow 20:06:37 11° 131° (SE) 1,754 2.9 -11.0°
